Temp
6 6 7 7 7 7 7 8 8 8 8 8 8 9 9 9 9 9 9 10 10 10 10 10 10 10 10 10 10 10 9 10 10 10 9 10 9 9 8 8 9 8 8 8 8
6 6 7 7 7 7 7 7 8 8 8 8 8 9 9 9 9 9 9 10 10 10 10 10 10 9 9 9 9 9 9 10 9 9 8 9 9 9 8 9 9 9 9 8 8
6 6 6 7 7 7 7 7 8 8 8 8 8 8 9 9 9 9 9 10 10 10 9 9 9 9 9 9 9 9 9 9 9 9 9 9 8 8 8 8 8 9 9 9 8
6 6 6 6 7 7 7 7 7 7 8 8 8 8 8 8 8 9 9 9 9 9 9 9 9 9 9 9 9 9 9 9 9 9 9 8 9 8 8 8 9 9 9 8 8
6 6 6 6 7 7 7 7 7 7 8 8 8 8 8 8 9 8 9 9 9 9 9 8 8 8 8 8 8 8 9 9 9 8 8 8 8 8 9 9 9 9 8 8 8
6 6 6 6 6 6 7 7 7 7 7 8 8 8 8 8 8 8 8 8 8 8 8 8 8 8 8 8 8 8 8 8 8 8 8 8 8 8 9 9 8 8 8 8 8
6 6 6 6 6 6 6 7 7 7 7 7 7 7 8 8 8 8 8 8 8 8 8 8 7 7 7 7 8 8 8 8 8 8 8 8 8 9 8 9 8 8 8 7 7
5 5 5 6 6 6 6 6 6 7 7 7 7 7 7 8 8 8 8 8 8 7 7 7 7 7 7 7 7 7 7 7 7 8 8 8 8 8 9 8 8 8 7 7 7
5 5 5 5 5 6 6 6 6 6 6 6 6 7 7 8 8 8 7 7 7 7 7 7 7 7 7 6 6 7 8 8 7 8 8 7 8 8 8 8 8 8 7 7 7
4 5 5 5 5 5 5 5 6 6 6 6 6 6 6 7 7 7 7 7 7 7 6 6 6 6 6 5 8 8 7 7 7 6 7 7 7 7 7 7 7 7 7 7 7
4 4 4 5 5 5 5 5 5 5 6 6 6 6 6 7 7 7 7 7 6 6 6 6 6 7 7 6 6 6 6 6 7 6 6 7 6 6 6 6 6 6 7 7 7
4 4 4 4 4 4 5 5 5 5 5 6 5 5 6 6 6 6 6 6 6 7 6 6 6 7 5 6 6 6 5 6 6 5 5 6 5 6 6 5 7 6 6 7 6
3 3 4 4 3 4 4 4 4 4 4 5 5 5 5 5 5 6 5 5 6 6 6 6 6 7 6 6 6 6 5 5 6 4 5 5 5 6 8 6 6 7 6 7 6
2 3 3 3 3 3 4 3 3 3 2 3 5 6 5 5 5 5 5 5 5 5 5 4 5 5 5 5 5 5 5 5 5 3 5 3 6 7 6 6 7 7 7 7 6
2 2 1 3 3 4 3 3 2 2 3 5 4 5 6 6 5 6 6 5 5 5 4 5 5 5 5 6 4 4 4 4 4 3 2 3 2 6 6 5 8 7 7 7 7
2 2 1 1 2 3 2 2 1 0 3 4 4 4 4 5 5 5 5 5 4 3 4 4 4 4 4 5 4 3 3 3 2 1 2 3 3 6 6 7 7 8 7 7 7
1 2 1 1 2 2 0 2 -1 1 3 4 3 4 5 5 5 4 4 5 4 2 2 3 3 3 3 3 3 3 2 4 3 2 3 4 3 5 6 7 7 7 7 6 6
1 1 1 1 1 0 -2 -2 -2 2 2 3 4 3 4 5 4 4 3 3 4 4 4 3 3 4 5 5 3 3 2 4 3 5 6 2 2 4 6 6 7 7 7 6 6
1 1 1 1 0 0 -1 -3 -2 5 2 3 2 2 2 3 3 3 3 4 3 3 3 3 3 4 5 5 3 1 0 2 2 2 1 4 4 4 6 7 7 7 7 7 6
0 0 -0 0 0 -0 -2 -2 2 0 2 3 2 3 3 3 3 3 2 5 3 6 3 3 4 4 4 4 2 1 1 -0 0 2 3 6 6 6 6 6 6 6 6 6 5
-0 -1 -0 -0 -0 -2 -2 -1 3 -0 0 2 2 2 3 2 4 4 4 4 5 6 4 3 3 3 2 2 4 1 -0 1 2 3 4 5 7 6 5 6 6 6 5 5 4
-2 -1 -1 -1 -1 -1 -2 3 -1 -2 -1 0 1 1 2 2 3 3 5 5 5 6 5 5 2 2 2 2 3 0 1 1 2 1 2 4 5 5 5 5 5 5 4 4 4
-2 -1 -1 -1 -1 -1 -1 -2 -2 -2 -1 -1 -0 0 1 2 1 3 3 4 5 4 5 5 1 2 1 -0 -1 0 2 1 1 3 3 2 4 5 4 4 4 4 4 4 3
-2 -2 -2 -1 -1 -1 -1 -1 -2 -2 -1 -1 -1 -0 0 1 1 2 3 2 3 4 3 4 3 1 2 3 3 1 1 1 0 1 2 2 3 4 4 3 3 4 3 3 2
-3 -3 -2 -1 -1 -1 -1 -0 -0 -2 -2 -1 -1 -1 -1 -1 0 1 1 1 1 2 2 2 1 0 1 2 2 2 2 2 1 3 2 3 3 3 3 3 3 3 2 2 1
-3 -3 -3 -2 -2 -1 -2 -1 -2 -1 -2 -1 -2 -1 -1 -1 0 0 0 0 1 1 1 0 -1 -2 -1 0 0 -0 0 1 2 3 2 2 3 3 2 2 2 2 1 1 0
-4 -4 -4 -3 -3 -2 -2 -2 -1 -1 -2 -1 -1 -2 -1 0 1 0 -0 -0 -0 -0 -0 -1 -2 -2 -2 -1 -1 -2 2 -0 1 1 2 1 4 2 1 1 1 1 1 -1 -0
Height
3154 3154 3156 3157 3158 3159 3160 3161 3162 3163 3164 3165 3165 3166 3167 3167 3168 3169 3169 3171 3171 3171 3171 3172 3172 3173 3173 3173 3174 3174 3176 3176 3177 3177 3178 3175 3177 3178 3178 3179 3178 3179 3179 3179 3178
3153 3154 3155 3156 3158 3158 3159 3160 3162 3163 3163 3164 3165 3165 3166 3166 3167 3167 3168 3168 3169 3169 3170 3170 3171 3172 3172 3173 3173 3173 3175 3175 3174 3175 3175 3175 3176 3176 3178 3177 3177 3177 3177 3177 3177
3151 3152 3153 3155 3156 3158 3159 3159 3161 3162 3163 3163 3164 3164 3164 3165 3166 3166 3166 3166 3167 3168 3168 3169 3169 3170 3171 3172 3172 3172 3173 3171 3171 3172 3173 3173 3174 3175 3176 3176 3176 3175 3176 3176 3176
3148 3150 3151 3153 3154 3156 3157 3158 3159 3160 3161 3162 3162 3162 3163 3164 3167 3163 3164 3164 3165 3165 3167 3168 3168 3169 3170 3170 3170 3170 3169 3170 3170 3170 3172 3172 3172 3173 3173 3173 3174 3173 3173 3173 3173
3146 3147 3149 3150 3152 3153 3154 3156 3157 3158 3158 3160 3160 3160 3161 3162 3162 3162 3162 3163 3164 3164 3166 3166 3167 3168 3168 3168 3168 3168 3167 3168 3168 3169 3169 3169 3170 3170 3170 3170 3170 3171 3170 3171 3171
3141 3143 3146 3147 3149 3151 3152 3153 3154 3155 3156 3156 3157 3158 3159 3160 3160 3160 3160 3161 3162 3162 3163 3164 3164 3165 3165 3166 3166 3166 3165 3166 3166 3166 3166 3167 3166 3165 3167 3166 3167 3166 3167 3168 3168
3136 3138 3140 3143 3145 3147 3149 3149 3150 3151 3152 3153 3154 3154 3155 3157 3156 3157 3157 3158 3159 3159 3159 3161 3162 3163 3163 3163 3163 3163 3164 3163 3163 3163 3163 3163 3162 3160 3161 3163 3162 3163 3164 3164 3165
3130 3132 3135 3137 3140 3143 3144 3145 3146 3147 3148 3149 3150 3150 3149 3152 3152 3153 3154 3155 3155 3156 3157 3158 3158 3159 3160 3161 3161 3162 3161 3162 3160 3159 3159 3161 3160 3158 3158 3158 3159 3159 3159 3160 3161
3123 3126 3129 3131 3134 3137 3139 3140 3141 3142 3144 3145 3146 3146 3144 3146 3147 3149 3149 3150 3151 3152 3153 3154 3155 3156 3157 3158 3159 3157 3158 3159 3158 3157 3156 3157 3158 3154 3155 3155 3155 3156 3155 3156 3157
3116 3119 3122 3125 3128 3131 3133 3135 3136 3137 3139 3140 3140 3144 3141 3142 3142 3142 3144 3145 3146 3148 3149 3150 3151 3151 3152 3155 3154 3155 3155 3156 3156 3154 3152 3152 3152 3149 3151 3151 3151 3151 3151 3151 3152
3109 3112 3115 3118 3121 3125 3128 3130 3133 3133 3132 3135 3134 3134 3136 3138 3138 3139 3140 3141 3142 3143 3144 3145 3146 3144 3148 3149 3151 3151 3151 3152 3154 3150 3149 3148 3147 3148 3144 3145 3146 3145 3145 3145 3146
3101 3105 3108 3111 3114 3117 3120 3122 3125 3126 3125 3127 3126 3126 3129 3131 3133 3134 3136 3137 3138 3139 3140 3140 3137 3143 3144 3144 3145 3146 3146 3146 3149 3144 3144 3143 3139 3140 3141 3135 3139 3138 3137 3138 3139
3093 3097 3101 3103 3105 3108 3114 3118 3120 3121 3118 3116 3117 3118 3121 3125 3125 3126 3131 3131 3133 3134 3133 3134 3136 3137 3138 3139 3141 3141 3141 3143 3145 3140 3138 3137 3128 3128 3129 3130 3127 3128 3130 3128 3131
3085 3089 3092 3095 3098 3102 3106 3114 3115 3117 3113 3107 3105 3104 3109 3116 3115 3118 3122 3126 3126 3128 3131 3129 3132 3131 3133 3134 3137 3136 3138 3137 3137 3138 3137 3134 3122 3121 3121 3120 3119 3119 3120 3120 3122
3074 3079 3083 3086 3087 3093 3104 3108 3110 3115 3112 3096 3088 3090 3096 3105 3106 3106 3112 3115 3116 3120 3123 3123 3122 3125 3126 3129 3131 3132 3132 3131 3132 3131 3131 3131 3128 3109 3112 3112 3111 3113 3114 3115 3115
3064 3069 3074 3075 3076 3087 3093 3099 3105 3115 3090 3081 3081 3082 3089 3091 3092 3096 3103 3105 3109 3111 3113 3116 3116 3118 3120 3121 3125 3125 3127 3128 3127 3128 3121 3119 3121 3101 3105 3104 3106 3107 3109 3110 3112
3055 3057 3057 3064 3068 3079 3081 3087 3098 3095 3076 3072 3073 3079 3082 3083 3084 3088 3091 3093 3098 3104 3104 3109 3106 3109 3112 3116 3118 3120 3123 3125 3123 3122 3108 3107 3110 3094 3100 3099 3100 3102 3104 3106 3108
3044 3047 3049 3053 3059 3067 3068 3074 3075 3044 3063 3063 3069 3072 3073 3076 3076 3080 3084 3086 3088 3092 3100 3101 3101 3098 3099 3103 3109 3110 3115 3116 3113 3107 3102 3103 3094 3087 3090 3091 3095 3096 3098 3101 3103
3035 3036 3034 3040 3044 3050 3047 3047 3044 3017 3061 3066 3068 3066 3067 3070 3072 3073 3075 3076 3077 3082 3089 3093 3094 3092 3095 3097 3103 3102 3105 3112 3109 3106 3104 3092 3086 3083 3083 3085 3089 3092 3093 3096 3099
3020 3024 3019 3029 3034 3033 3027 3025 3021 3028 3049 3057 3052 3058 3059 3062 3065 3066 3067 3065 3069 3072 3081 3085 3087 3087 3089 3091 3093 3094 3098 3103 3105 3101 3094 3079 3078 3074 3074 3078 3082 3086 3089 3091 3094
3009 3006 3006 3017 3024 3017 3007 3006 3007 3024 3038 3046 3045 3050 3051 3055 3057 3056 3058 3060 3062 3067 3073 3078 3080 3081 3080 3078 3082 3086 3089 3091 3092 3089 3082 3074 3066 3065 3068 3072 3075 3080 3084 3086 3089
2993 2991 2995 3004 3003 2996 2994 2981 3008 3013 3029 3032 3035 3038 3042 3049 3047 3049 3047 3051 3057 3061 3062 3067 3070 3072 3072 3071 3076 3076 3078 3082 3081 3080 3078 3074 3054 3063 3065 3067 3069 3073 3075 3078 3081
2977 2983 2984 2986 2981 2982 2988 2991 3001 3007 3011 3018 3022 3027 3038 3040 3040 3039 3041 3046 3049 3052 3054 3059 3060 3064 3066 3065 3064 3064 3065 3068 3072 3073 3062 3071 3049 3058 3060 3063 3065 3067 3069 3071 3074
2971 2969 2971 2966 2966 2974 2979 2981 2987 2992 3003 3008 3013 3022 3026 3026 3026 3029 3032 3037 3041 3045 3050 3051 3049 3045 3041 3049 3051 3049 3052 3056 3062 3060 3045 3038 3048 3052 3053 3056 3059 3062 3064 3066 3068
2957 2952 2955 2955 2956 2959 2968 2972 2973 2984 2987 2998 3001 3002 3006 3015 3017 3011 3026 3028 3032 3036 3038 3038 3034 3038 3031 3038 3043 3041 3042 3044 3042 3029 3046 3022 3038 3045 3046 3050 3052 3056 3057 3057 3059
2939 2944 2947 2951 2951 2951 2952 2954 2960 2964 2975 2974 2982 2985 2999 2999 2995 3004 3014 3017 3018 3024 3025 3024 3022 3029 3021 3023 3029 3030 3031 3025 3024 3028 3029 3028 3023 3039 3039 3044 3045 3046 3047 3048 3049
2934 2933 2940 2939 2944 2944 2942 2943 2947 2958 2962 2966 2968 2981 2983 2974 2987 2998 3005 3006 3008 3008 3012 3014 3014 3015 3007 3015 3019 3016 2984 3014 3008 3010 3014 3014 3005 3028 3028 3030 3033 3036 3038 3040 3041
Wind_Speed
11 11 11 11 11 11 11 10 10 10 10 10 10 9 9 8 9 9 8 9 8 8 8 8 7 7 7 6 6 6 5 8 8 10 10 12 12 12 9 10 9 7 7 8 8
12 11 11 11 11 11 11 11 11 11 11 11 10 10 10 10 10 10 10 10 10 10 10 9 8 7 7 6 6 7 6 8 11 10 9 13 13 13 10 10 12 9 8 8 8
15 14 13 12 12 12 12 13 13 12 12 12 11 11 10 10 11 11 11 11 11 11 11 10 9 8 8 8 8 10 7 14 13 14 14 15 14 13 11 11 12 13 9 8 8
18 18 16 15 15 15 14 14 14 14 14 13 12 12 11 10 7 9 11 11 10 10 9 9 8 8 10 11 10 10 13 12 13 12 13 14 17 14 14 16 14 13 12 11 10
22 21 20 19 18 17 16 16 16 16 15 15 14 13 13 13 14 13 10 9 9 10 10 11 12 12 11 12 12 12 13 12 12 11 12 14 15 18 18 17 16 15 15 13 11
26 25 24 23 21 20 19 19 19 19 18 16 16 16 16 16 15 16 16 17 17 16 16 15 15 15 15 13 13 11 12 14 14 15 16 16 18 21 19 17 18 19 17 14 14
30 29 28 27 25 24 22 22 21 21 20 19 19 20 20 19 18 18 18 18 18 19 18 17 16 15 14 13 15 15 15 16 18 18 18 16 21 22 22 20 21 18 17 17 16
34 32 31 30 28 27 25 24 24 23 23 22 22 22 24 21 20 21 21 20 20 19 19 18 17 18 17 16 16 14 15 12 14 17 19 15 14 16 13 17 18 18 19 19 18
36 36 34 33 31 29 28 27 26 26 26 25 25 25 28 25 24 23 24 24 23 23 22 21 20 20 19 17 13 16 14 11 10 13 17 18 10 18 15 17 18 21 22 21 21
38 37 37 35 34 32 30 30 30 29 29 28 28 26 27 21 16 19 26 25 25 24 24 24 23 23 23 16 17 13 15 13 14 13 15 19 21 24 19 18 20 22 24 25 25
39 39 38 37 36 34 33 33 32 33 32 30 29 26 27 25 19 22 20 16 21 28 28 27 26 30 24 22 20 18 15 17 14 20 20 22 24 20 25 25 27 28 30 30 29
40 41 40 38 38 37 37 36 33 34 35 34 35 36 35 32 27 23 23 22 24 26 25 27 30 23 20 21 21 22 21 23 18 24 24 25 29 30 28 35 31 33 36 34 31
42 42 41 39 39 41 37 35 32 32 36 42 41 40 37 34 33 34 29 25 25 25 29 27 19 20 24 25 25 26 23 22 19 21 24 27 35 36 32 35 41 37 37 36 34
48 46 42 42 44 40 39 31 30 29 30 37 41 47 46 39 41 37 34 36 35 32 27 25 26 30 27 26 24 22 21 24 25 17 19 13 15 18 15 25 27 27 30 30 32
53 56 45 44 44 43 35 31 29 22 9 18 33 39 38 40 37 40 42 39 38 37 34 23 27 27 31 32 27 22 23 25 24 21 20 24 16 23 21 31 31 29 26 24 22
47 52 56 51 52 42 34 32 25 12 20 15 20 26 31 36 43 42 37 42 41 39 39 34 29 29 27 28 25 26 23 22 21 13 13 26 26 18 22 21 21 23 24 22 19
46 44 64 53 54 51 36 38 20 23 20 30 25 23 24 34 40 42 44 44 41 28 30 32 43 42 38 35 29 25 15 6 6 7 8 12 20 27 14 21 21 23 23 21 19
52 41 54 50 52 48 40 40 19 75 59 25 11 31 33 31 37 39 41 41 44 40 20 22 15 31 34 36 23 23 25 11 6 6 4 11 12 13 22 31 23 19 22 21 21
46 50 52 57 47 52 48 47 56 83 42 53 28 25 34 32 27 36 41 43 40 47 30 20 16 18 16 17 26 15 27 26 17 17 5 12 15 18 18 22 30 26 25 21 20
52 56 55 49 60 55 56 58 69 57 44 29 52 39 32 38 37 29 32 35 41 41 40 17 10 16 20 21 25 26 15 14 15 5 8 13 21 21 18 29 31 30 29 24 23
38 40 57 54 50 60 63 68 72 51 33 46 44 38 39 32 42 43 33 32 26 38 33 31 24 18 21 27 31 33 26 19 17 20 5 6 14 17 25 19 29 31 29 27 25
47 48 49 53 59 63 65 78 60 49 47 41 42 44 37 32 38 46 51 44 29 31 32 38 20 24 28 29 28 30 27 34 20 9 19 19 30 16 12 23 26 32 32 32 29
45 48 49 48 64 59 69 66 60 57 59 56 49 41 41 38 35 46 41 47 41 35 35 34 27 18 22 23 26 37 44 37 42 24 39 15 16 19 26 22 27 34 36 33 31
47 34 50 53 54 65 70 75 64 65 56 63 50 39 42 45 43 34 41 37 41 44 37 35 36 36 36 23 18 31 45 51 45 36 44 56 38 30 25 24 31 35 36 34 27
48 40 32 26 58 64 66 74 76 63 66 61 59 65 56 43 45 57 42 33 33 38 44 46 46 45 55 50 37 27 34 40 58 72 36 59 46 40 39 31 30 33 36 35 32
46 50 46 45 39 53 70 73 67 71 66 67 68 66 61 56 62 49 54 48 45 41 43 47 49 43 58 57 51 46 46 49 50 49 63 67 59 30 35 38 35 37 37 34 33
45 49 47 47 43 42 48 71 69 67 63 75 71 69 58 75 72 68 56 49 50 45 49 48 49 40 42 46 47 29 78 56 63 60 58 58 67 49 39 36 39 39 39 37 36
Wind_Direction
196 196 200 199 199 199 200 203 205 206 209 206 207 210 216 221 228 233 233 239 240 240 240 238 243 250 249 241 227 214 214 228 226 206 216 224 212 219 223 246 258 264 270 265 271
215 217 216 219 219 214 213 216 219 220 219 221 222 226 229 233 238 243 244 245 246 245 245 245 250 249 247 237 232 219 217 226 213 205 213 225 217 227 236 257 273 275 281 278 279
227 227 230 230 233 233 228 223 226 230 232 230 233 234 238 244 249 248 249 249 249 250 250 247 241 234 238 240 242 240 229 240 234 226 218 224 226 233 243 264 263 285 285 270 257
235 234 234 237 236 238 236 236 235 235 238 238 240 243 246 246 248 255 249 249 246 240 236 229 224 234 251 262 258 249 241 235 233 228 223 227 234 239 248 250 272 273 272 254 253
240 242 241 240 241 241 241 241 241 242 241 244 246 249 252 251 247 253 250 239 234 234 239 243 248 251 253 258 258 245 246 237 234 232 232 241 245 249 255 260 261 262 256 249 253
240 243 246 245 246 247 245 244 244 245 245 247 251 252 252 255 256 255 253 251 250 249 249 249 251 253 257 253 244 249 244 239 242 250 254 256 256 256 260 260 257 257 245 241 246
239 241 245 248 248 249 250 249 248 248 250 251 252 256 256 253 254 256 255 253 251 251 250 250 251 250 252 257 253 253 254 253 256 258 260 260 257 263 259 262 257 246 237 242 249
241 241 243 245 248 250 251 252 252 252 252 255 258 260 261 258 257 256 256 253 250 249 250 250 250 251 249 254 259 262 260 255 255 262 258 254 263 266 258 246 244 240 244 249 256
241 242 243 246 247 249 251 253 253 252 253 254 257 262 267 263 260 258 253 250 248 247 248 249 250 251 252 253 260 264 253 243 260 252 260 261 245 253 256 245 240 247 252 257 261
239 241 243 245 248 249 250 253 254 253 253 255 257 261 256 259 262 255 247 245 246 247 249 248 250 250 248 229 235 259 250 252 247 276 258 261 258 266 262 245 246 250 253 258 264
244 242 243 244 246 249 250 252 253 256 252 254 255 255 264 257 254 252 246 240 243 244 246 248 243 245 251 251 248 261 251 261 261 265 267 265 264 252 267 250 248 253 257 261 266
244 245 243 244 246 246 248 250 253 258 262 255 255 255 256 255 253 251 245 244 243 245 240 246 245 251 245 239 244 251 256 263 271 263 274 273 270 267 249 264 258 257 261 265 268
247 244 244 244 245 246 245 248 251 258 263 261 254 255 253 251 251 248 245 246 247 246 248 246 248 251 248 250 252 256 253 263 267 274 279 287 280 278 274 256 258 257 260 262 259
245 246 241 241 244 245 245 247 249 255 268 261 261 257 250 247 249 245 243 243 245 245 249 250 239 248 252 255 256 254 264 265 262 264 273 262 281 269 266 262 260 252 249 255 252
236 243 242 242 246 244 245 243 243 246 274 255 231 243 244 235 242 241 239 242 242 242 235 241 252 253 254 261 255 255 254 260 264 260 270 259 269 285 251 249 259 250 246 241 235
232 235 242 239 240 242 238 231 230 209 241 235 223 230 230 227 231 232 231 233 233 236 240 237 246 250 250 254 255 254 256 263 270 258 254 248 229 269 240 254 249 234 233 238 233
235 236 232 235 240 238 232 225 196 221 230 243 233 221 224 226 227 226 229 227 223 217 233 243 246 248 252 254 254 246 228 245 243 215 250 224 215 233 226 246 244 235 234 234 231
232 245 241 236 237 231 226 213 204 233 222 236 233 224 218 221 224 226 223 228 228 231 234 221 241 242 247 245 246 247 214 205 249 227 255 207 231 241 236 239 227 219 222 221 220
231 240 240 246 233 231 221 199 216 239 229 231 237 221 217 221 221 222 226 231 234 222 208 215 235 239 239 233 222 233 215 226 258 264 281 236 250 248 224 216 214 220 220 220 232
233 237 240 235 241 230 217 214 240 238 219 228 224 229 228 221 218 218 222 233 228 232 219 222 238 238 240 241 224 221 222 200 211 229 240 251 251 240 222 227 218 218 212 229 229
231 239 242 231 230 221 208 221 242 222 221 222 229 225 228 224 227 223 227 234 232 235 221 222 231 246 238 222 233 220 213 210 221 226 249 265 252 241 231 226 217 216 223 226 226
235 234 238 233 222 216 211 237 232 228 218 221 229 230 229 220 228 227 228 233 238 232 222 229 225 236 243 251 231 229 235 219 219 211 227 249 262 255 217 211 205 213 218 218 222
230 233 240 239 219 216 222 227 225 227 221 222 227 220 219 226 226 230 233 236 231 237 228 227 219 240 252 253 240 237 233 219 225 237 241 227 250 245 243 222 220 213 212 217 218
230 239 236 225 243 226 226 226 227 228 223 219 220 224 220 226 231 233 240 236 237 238 237 237 230 229 234 239 247 231 233 233 220 226 237 238 244 246 246 233 217 214 218 221 242
238 237 221 228 219 228 228 230 231 228 227 225 226 227 226 229 230 235 231 232 232 234 235 231 233 237 248 245 243 261 255 244 231 241 227 249 244 240 245 245 234 224 227 233 262
229 238 237 228 219 225 227 226 228 234 224 227 228 229 224 228 231 233 230 231 229 232 230 234 235 239 249 247 245 251 251 246 246 250 243 247 250 249 252 246 227 231 238 253 275
239 247 252 245 247 238 226 228 233 234 231 237 237 232 228 240 243 244 241 243 236 241 241 235 233 226 243 248 251 249 248 238 246 249 245 237 253 245 243 236 234 240 250 266 264